BEIDOU-3 M22 (44794 NORAD) Tracking and Keplerian Element Data

This shows tracking and keplerian element data for the satellite.

Feedback or suggestion? Click here.




ElementValue
Catalog44794
NameBEIDOU-3 M22
Epoch Orbit101
Epoch Day17.07452943
Epoch Year2020
RAAN20.9955
Inclination55.0008
Eccentricity0.0005192
Argument of Perigee321.677
Mean Anonmoly111.7484
Mean Motion1.86233173
Decay Rate-7E-07
L11 44794U 19078B 20017.07452943 -.00000070 00000-0 10000-3 0 9999
L22 44794 55.0008 20.9955 0005192 321.6770 111.7484 1.86233173 1013

Live tracking and technical data element details for BEIDOU-3 M22 (NORAD 44794). BEIDOU-3 M22 can be tracked NOW for your location showing map with azimuth and elevation plus other details from your city location.

Track the satellite on the map from your city or location and see movement details for azimuth, elevation, latitude, longitude, range, height, and movement on the map or in text.







IsCatalogInMostPopularTable: catalog: 44794, numindb: 9
Update: records affected: 1



GetName: 44794 BEIDOU-3 M22

Hit Count: updated at: Mon, 20 Jan 2020 04:07:06 GMT